Location: Plainartige
(45.6866°N, 1.7993°E)
Time: 06:27:40
(UTC+00:00)

STARS - Visible Passes

Search period start: 28 June 2022 00:00
Search period end: 08 July 2022 00:00
Orbit: 622 x 636 km, 98.2° (Epoch: 27 June)

Date Brightness Start Highest point End Pass type
(mag) Time Alt. Az. Time Alt. Az. Time Alt. Az.
28 Jun ? 21:38:55 10° NE 21:42:10 20° E 21:43:15 18° ESE visible
28 Jun ? 23:14:28 10° N 23:18:38 43° WNW 23:20:36 26° WSW visible
29 Jun ? 21:58:30 10° NNE 22:02:25 31° E 22:03:33 27° SE visible
29 Jun ? 23:34:52 10° N 23:38:36 28° WNW 23:40:54 18° WSW visible
30 Jun ? 22:18:20 10° NNE 22:22:37 50° E 22:23:51 38° SSE visible
30 Jun ? 23:55:28 10° NNW 23:58:31 19° WNW 00:01:12 11° WSW visible
01 Jul ? 22:38:20 10° NNE 22:42:44 81° ESE 22:44:08 43° S visible
02 Jul ? 00:16:32 10° NNW 00:18:22 12° WNW 00:20:12 10° W visible
02 Jul ? 21:23:52 10° ENE 21:26:07 14° E 21:27:05 13° ESE visible
02 Jul ? 22:58:28 10° N 23:02:48 63° WNW 23:04:27 36° SW visible
03 Jul ? 21:43:01 10° NE 21:46:24 22° E 21:47:23 20° ESE visible
03 Jul ? 23:18:44 10° N 23:22:49 39° WNW 23:24:44 25° WSW visible
04 Jul ? 22:02:38 10° NNE 22:06:38 34° E 22:07:40 30° SE visible
04 Jul ? 23:39:08 10° N 23:42:46 26° WNW 23:45:01 17° WSW visible
05 Jul ? 22:22:30 10° NNE 22:26:48 54° E 22:27:57 41° SSE visible
05 Jul ? 23:59:48 10° NNW 00:02:39 17° WNW 00:05:18 11° W visible
06 Jul ? 22:42:31 10° NNE 22:46:55 88° ESE 22:48:13 45° SSW visible
07 Jul ? 00:21:01 10° NW 00:22:29 12° WNW 00:23:57 10° WNW visible
07 Jul ? 21:27:48 10° NE 21:30:19 15° E 21:31:08 14° ESE visible
07 Jul ? 23:02:39 10° N 23:06:58 58° WNW 23:08:30 36° SW visible
